Location: Hopkins Observatory
(42.6965°N, 73.1843°W)
Time: 00:38:12
(UTC-04:00)

Amateur Radio Satellites - All Passes

Search period start: 03 August 2015 00:08
Search period end: 04 August 2015 00:08
Location: Hopkins Observatory, 42.6965°N, 73.1843°W

Satellite Date Start Highest point End Downlink Frequencies (MHz)
Time Altitude Azimuth
POPSAT HIP 1 03 Aug 00:13:19 00:17:36 88° 102° (ESE) 00:21:53 437.405
DX 1 03 Aug 00:13:29 00:14:59 11° 272° (W) 00:16:14 434.975-435.025
QB50P2 03 Aug 00:21:30 00:25:46 73° 285° (WNW) 00:30:02 145.880/145.840
M-CUBED/EXP-1 PRIME 03 Aug 00:23:37 00:26:16 15° 304° (NW) 00:28:43 437.505
UNISAT 6 03 Aug 00:23:38 00:27:47 31° 291° (WNW) 00:31:55 437.425
BEESAT 03 Aug 00:28:57 00:31:32 15° 62° (ENE) 00:34:18 436.000
SPROUT 03 Aug 00:30:02 00:34:16 68° 259° (WSW) 00:38:32 437.525
ISS 03 Aug 00:32:15 00:34:33 18° 6° (N) 00:36:51 145.825
TISAT 1 03 Aug 00:34:19 00:38:29 83° 76° (ENE) 00:42:41 437.305
VELOX 1 03 Aug 00:34:39 00:36:28 12° 272° (W) 00:38:04 145.980
DUCHIFAT 1 03 Aug 00:44:03 00:48:06 44° 288° (WNW) 00:52:08 145.980
SWISSCUBE 03 Aug 00:48:24 00:52:12 24° 66° (ENE) 00:56:06 437.505
QB50P1 03 Aug 00:48:54 00:52:52 37° 289° (WNW) 00:56:47 145.935-145.965
NANOSAT C BR1 03 Aug 00:49:20 00:53:17 38° 289° (WNW) 00:57:13 145.865
RS-15 03 Aug 00:51:48 01:01:09 29° 339° (NNW) 01:10:42 29.354- 29.394
ESTCUBE 1 03 Aug 00:54:11 00:55:46 11° 273° (W) 00:57:04 437.505/2401.250
PHONESAT 2.4 03 Aug 00:59:49 01:02:01 16° 209° (SSW) 01:04:10 2401.200-2431.200
BEESAT 2 03 Aug 01:05:31 01:08:28 18° 319° (NW) 01:11:21 435.950
TIGRISAT 03 Aug 01:07:37 01:10:01 14° 298° (WNW) 01:12:14 435.000
ITUPSAT 1 03 Aug 01:09:44 01:14:03 35° 69° (ENE) 01:18:26 437.325
ANTELSAT 03 Aug 01:10:35 01:12:38 12° 298° (WNW) 01:14:29 437.575/2403.000
AIST 2 03 Aug 01:11:35 01:15:45 52° 307° (NW) 01:19:56 435.215
O/OREOS (USA 219) 03 Aug 01:25:17 01:29:44 68° 110° (ESE) 01:34:13 437.305
Oscar 19 03 Aug 01:27:20 01:31:17 22° 92° (E) 01:35:21 437.125/150
Cosmos 2491 03 Aug 01:31:16 01:37:40 22° 279° (W) 01:43:40 435.465 / 435.565
POLYITAN 1 03 Aug 01:34:26 01:36:45 14° 296° (WNW) 01:38:55 437.675
BUGSAT 1 03 Aug 01:44:07 01:46:42 16° 294° (WNW) 01:49:09 437.445
YUBILEINY 03 Aug 01:51:23 01:59:30 40° 290° (WNW) 02:07:35 435.215
STARS 03 Aug 01:56:27 01:57:18 11° 61° (ENE) 01:58:23 437.465
Cosmos 2504 03 Aug 02:01:50 02:08:05 34° 86° (E) 02:14:50 435.465 / 435.565
BEESAT 03 Aug 02:04:06 02:08:53 69° 258° (WSW) 02:13:41 436.000
ISS 03 Aug 02:08:30 02:11:37 40° 26° (NNE) 02:14:43 145.825
KKS-1 03 Aug 02:24:49 02:28:46 34° 69° (ENE) 02:32:47 437.445
SWISSCUBE 03 Aug 02:25:22 02:29:53 39° 263° (W) 02:34:22 437.505
JAS-2 03 Aug 02:26:20 02:30:20 15° 82° (E) 02:34:47 435.910
Gurwin Techsat 1B 03 Aug 02:41:41 02:46:27 33° 95° (E) 02:51:15 435.225
ITUPSAT 1 03 Aug 02:47:55 02:52:00 27° 266° (W) 02:56:02 437.325
ITAMSAT 1 03 Aug 02:52:13 02:56:57 36° 96° (E) 03:01:42 435.822/435.867
Oscar 19 03 Aug 03:05:56 03:10:55 47° 289° (WNW) 03:15:51 437.125/150
O/OREOS (USA 219) 03 Aug 03:07:06 03:09:43 15° 310° (NW) 03:12:13 437.305
RS-15 03 Aug 03:09:29 03:18:31 26° 14° (NNE) 03:28:01 29.354- 29.394
STARS 03 Aug 03:28:47 03:33:09 84° 256° (WSW) 03:37:33 437.465
MOZHAYETS 4 03 Aug 03:30:27 03:33:55 22° 66° (ENE) 03:37:31
ISS 03 Aug 03:45:06 03:47:57 28° 223° (SW) 03:50:48 145.825
Cosmos 2504 03 Aug 03:53:13 04:00:05 45° 287° (WNW) 04:07:26 435.465 / 435.565
KKS-1 03 Aug 04:01:53 04:05:29 23° 266° (W) 04:08:59 437.445
AO-7 03 Aug 04:03:20 04:10:33 33° 95° (E) 04:17:54 29.400- 29.500
JAS-2 03 Aug 04:08:48 04:16:43 77° 102° (ESE) 04:24:26 435.910
Gurwin Techsat 1B 03 Aug 04:21:40 04:26:25 33° 293° (WNW) 04:31:04 435.225
ITAMSAT 1 03 Aug 04:31:53 04:36:22 30° 294° (WNW) 04:40:46 435.822/435.867
DANDE 03 Aug 04:35:28 04:38:33 71° 100° (E) 04:41:14 436.750
GONETS M04 03 Aug 04:39:15 04:44:46 20° 80° (E) 04:50:42
CUSAT 1 03 Aug 04:40:59 04:43:37 41° 282° (WNW) 04:46:07 437.405
HORYU 2 03 Aug 04:57:40 05:02:12 88° 103° (ESE) 05:06:42 437.375
MOZHAYETS 4 03 Aug 05:06:30 05:10:55 41° 263° (W) 05:15:19
RS-15 03 Aug 05:23:04 05:34:26 54° 44° (NE) 05:46:20 29.354- 29.394
CUBESAT XI-V 03 Aug 05:29:37 05:33:43 31° 69° (ENE) 05:37:51 437.345
JAS-2 03 Aug 05:54:48 06:01:03 26° 300° (WNW) 06:07:02 435.910
AO-7 03 Aug 05:55:40 06:03:49 58° 294° (WNW) 06:11:52 29.400- 29.500
CUTE-I 03 Aug 06:14:54 06:18:46 21° 91° (E) 06:22:46 437.470
GONETS M04 03 Aug 06:31:54 06:40:37 85° 278° (W) 06:49:23
HORYU 2 03 Aug 06:37:02 06:38:12 11° 300° (WNW) 06:39:08 437.375
BEESAT 3 03 Aug 06:43:58 06:46:41 17° 41° (NE) 06:49:27 437.485
Cosmos 2499 03 Aug 06:45:49 06:51:52 28° 83° (E) 06:58:29 435.465 / 435.565
STRAND 1 03 Aug 06:50:02 06:55:07 66° 73° (ENE) 07:00:14 437.568
Cubesat XI-IV 03 Aug 06:58:43 07:03:55 52° 99° (E) 07:09:06 437.490
CUBESAT XI-V 03 Aug 07:07:08 07:11:09 28° 266° (W) 07:15:08 437.345
PRISM 03 Aug 07:15:08 07:19:20 83° 257° (WSW) 07:23:32 437.425
RS-15 03 Aug 07:35:48 07:47:06 53° 247° (WSW) 07:58:38 29.354- 29.394
BEESAT 2 03 Aug 07:44:25 07:48:20 44° 51° (NE) 07:52:13 435.950
AO-7 03 Aug 07:50:47 07:55:02 15° 315° (NW) 07:58:52 29.400- 29.500
CUTE-I 03 Aug 07:54:03 07:59:12 52° 289° (WNW) 08:04:20 437.470
PCSat 03 Aug 07:54:13 07:58:02 20° 107° (ESE) 08:02:01 145.827
AIST 2 03 Aug 07:54:54 07:57:44 18° 40° (NE) 08:00:37 435.215
M-CUBED/EXP-1 PRIME 03 Aug 08:03:36 08:05:42 14° 56° (NE) 08:08:01 437.505
CANX-2 03 Aug 08:11:16 08:11:50 10° 86° (E) 08:12:41 2200.000
SO-50 03 Aug 08:13:51 08:17:27 22° 112° (ESE) 08:21:16 436.795
BEESAT 3 03 Aug 08:21:00 08:25:00 59° 240° (WSW) 08:28:55 437.485
DOVE 4 03 Aug 08:23:23 08:26:44 20° 92° (E) 08:30:21 437.250
AUBIESAT-1 03 Aug 08:29:31 08:32:39 21° 60° (ENE) 08:36:03 437.475
STRAND 1 03 Aug 08:31:44 08:34:52 16° 271° (W) 08:37:47 437.568
GONETS M04 03 Aug 08:33:08 08:39:05 19° 302° (WNW) 08:44:36
Cosmos 2499 03 Aug 08:37:10 08:44:30 57° 284° (WNW) 08:52:28 435.465 / 435.565
Cubesat XI-IV 03 Aug 08:39:37 08:43:42 22° 296° (WNW) 08:47:39 437.490
GOMX 1 03 Aug 08:45:00 08:49:27 50° 99° (E) 08:54:14 467.674
BRITE-PL 03 Aug 08:45:40 08:50:08 85° 106° (ESE) 08:54:54 437.365/2234.400
HO-68 03 Aug 09:02:32 09:09:19 44° 98° (E) 09:16:08 435.675
COMPASS 1 03 Aug 09:10:15 09:13:50 27° 94° (E) 09:17:27 437.405
BEESAT 2 03 Aug 09:23:15 09:26:05 18° 248° (WSW) 09:28:46 435.950
SEEDS 03 Aug 09:28:42 09:32:54 55° 100° (E) 09:37:04 437.485
AIST 2 03 Aug 09:32:35 09:36:44 63° 240° (WSW) 09:40:48 435.215
CUTE 1.7 + AOD 2 03 Aug 09:35:15 09:39:35 82° 102° (ESE) 09:43:52 437.475
PCSat 03 Aug 09:35:42 09:41:03 59° 304° (NW) 09:46:26 145.827
M-CUBED/EXP-1 PRIME 03 Aug 09:35:45 09:39:51 71° 253° (WSW) 09:44:19 437.505
FUNcube-1 03 Aug 09:40:34 09:43:04 15° 89° (E) 09:45:46 145.935
CANX-2 03 Aug 09:44:03 09:48:21 71° 285° (WNW) 09:52:36 2200.000
UNISAT 6 03 Aug 09:47:00 09:50:38 27° 68° (ENE) 09:54:26 437.425
UWE-3 03 Aug 09:48:06 09:51:49 24° 93° (E) 09:55:39 435.000/436.395/437.385
Oscar 11 03 Aug 09:48:29 09:52:11 27° 94° (E) 09:55:56 145.826/435.025
AAUSAT CUBESAT 2 03 Aug 09:49:14 09:53:25 63° 100° (E) 09:57:33 437.432
CINEMA 3 03 Aug 09:52:28 09:57:12 71° 102° (ESE) 10:02:05 145.822/145.860
SO-50 03 Aug 09:53:02 09:57:41 49° 309° (NW) 10:02:30 436.795
O/OREOS (USA 219) 03 Aug 09:56:07 09:59:14 18° 52° (NE) 10:02:27 437.305
DOVE 4 03 Aug 10:00:14 10:04:42 46° 287° (WNW) 10:09:23 437.250
AUBIESAT-1 03 Aug 10:03:08 10:07:04 41° 258° (WSW) 10:11:17 437.475
DUCHIFAT 1 03 Aug 10:03:14 10:05:26 14° 64° (ENE) 10:07:49 145.980
YUBILEINY 03 Aug 10:03:44 10:10:25 24° 62° (ENE) 10:17:24 435.215
QB50P1 03 Aug 10:07:52 10:10:30 17° 65° (ENE) 10:13:17 145.935-145.965
CUBEBUG 2 03 Aug 10:07:59 10:12:31 49° 99° (E) 10:17:07 437.445
NANOSAT C BR1 03 Aug 10:08:08 10:10:45 17° 65° (ENE) 10:13:30 145.865
GOMX 1 03 Aug 10:24:10 10:27:20 18° 293° (WNW) 10:30:30 467.674
DX 1 03 Aug 10:24:11 10:24:59 11° 88° (E) 10:26:05 434.975-435.025
BRITE-PL 03 Aug 10:27:09 10:28:12 11° 297° (WNW) 10:29:01 437.365/2234.400
TIGRISAT 03 Aug 10:28:31 10:32:50 69° 75° (ENE) 10:37:18 435.000
ANTELSAT 03 Aug 10:31:19 10:35:40 77° 76° (ENE) 10:40:11 437.575/2403.000
Cosmos 2499 03 Aug 10:38:15 10:40:08 11° 310° (NW) 10:41:28 435.465 / 435.565
Cosmos 2491 03 Aug 10:42:26 10:47:24 18° 78° (ENE) 10:52:53 435.465 / 435.565
COMPASS 1 03 Aug 10:45:52 10:49:27 27° 291° (WNW) 10:52:57 437.405
VELOX 1 03 Aug 10:46:57 10:48:19 11° 88° (E) 10:49:55 145.980
HO-68 03 Aug 10:50:26 10:57:00 39° 296° (WNW) 11:03:28 435.675
POLYITAN 1 03 Aug 10:50:38 10:54:40 48° 73° (ENE) 10:58:45 437.675
DELFI C3 03 Aug 10:54:01 10:58:05 81° 284° (WNW) 11:02:07 145.870
ZACube-1 03 Aug 10:54:36 10:59:12 90° 101° (E) 11:03:48 437.345
AIST 1 03 Aug 10:57:32 10:59:42 14° 86° (E) 11:02:03
BUGSAT 1 03 Aug 10:58:29 11:02:07 34° 71° (ENE) 11:05:49 437.445
SEEDS 03 Aug 11:05:51 11:08:16 15° 296° (WNW) 11:10:32 437.485
POPSAT HIP 1 03 Aug 11:06:34 11:10:44 71° 76° (ENE) 11:14:56 437.405
ESTCUBE 1 03 Aug 11:07:17 11:09:35 14° 89° (E) 11:12:05 437.505/2401.250
CUTE 1.7 + AOD 2 03 Aug 11:14:02 11:14:54 10° 298° (WNW) 11:15:32 437.475
QB50P2 03 Aug 11:14:49 11:19:02 89° 256° (WSW) 11:23:17 145.880/145.840
FUNcube-1 03 Aug 11:15:18 11:19:47 57° 286° (WNW) 11:24:16 145.935
HUMSAT D 03 Aug 11:21:48 11:26:09 75° 101° (E) 11:30:29 437.325/437.525
PCSat 03 Aug 11:23:12 11:25:44 13° 326° (NNW) 11:28:04 145.827
UNISAT 6 03 Aug 11:23:28 11:27:20 30° 265° (W) 11:31:16 437.425
UWE-3 03 Aug 11:24:11 11:28:26 36° 289° (WNW) 11:32:40 435.000/436.395/437.385
Oscar 11 03 Aug 11:24:34 11:28:20 28° 291° (WNW) 11:32:01 145.826/435.025
UKube-1 03 Aug 11:25:40 11:29:50 46° 99° (E) 11:34:00 .
AAUSAT CUBESAT 2 03 Aug 11:26:35 11:28:33 13° 296° (WNW) 11:30:19 437.432
CINEMA 3 03 Aug 11:31:19 11:33:56 14° 296° (WNW) 11:36:24 145.822/145.860
O/OREOS (USA 219) 03 Aug 11:34:33 11:39:03 55° 251° (WSW) 11:43:31 437.305
DUCHIFAT 1 03 Aug 11:36:45 11:40:50 54° 260° (W) 11:44:57 145.980
SO-50 03 Aug 11:37:42 11:39:30 12° 332° (NNW) 11:41:09 436.795
QB50P1 03 Aug 11:42:01 11:46:03 45° 261° (W) 11:50:06 145.935-145.965
NANOSAT C BR1 03 Aug 11:42:14 11:46:16 45° 262° (W) 11:50:19 145.865
AISAT 03 Aug 11:42:47 11:47:04 48° 99° (E) 11:51:22 437.250
CUBEBUG 2 03 Aug 11:45:31 11:48:53 19° 294° (WNW) 11:52:10 437.445
Cosmos 2504 03 Aug 11:47:45 11:51:08 13° 54° (NE) 11:55:09 435.465 / 435.565
CUBEBUG 1 03 Aug 11:49:33 11:53:27 32° 96° (E) 11:57:22 437.445
DX 1 03 Aug 11:57:28 12:01:49 71° 285° (WNW) 12:06:07 434.975-435.025
YUBILEINY 03 Aug 11:59:32 12:08:24 78° 265° (W) 12:17:11 435.215
50 SAT 03 Aug 12:06:21 12:10:20 73° 285° (WNW) 12:14:17 437.505
TIGRISAT 03 Aug 12:08:46 12:10:12 11° 273° (W) 12:11:24 435.000
SPROUT 03 Aug 12:16:38 12:19:42 19° 92° (E) 12:22:54 437.525
TISAT 1 03 Aug 12:19:51 12:21:29 12° 89° (E) 12:23:21 437.305
VELOX 1 03 Aug 12:21:01 12:25:25 68° 286° (WNW) 12:29:48 145.980
POLYITAN 1 03 Aug 12:28:24 12:30:54 15° 270° (W) 12:33:14 437.675
AIST 1 03 Aug 12:32:43 12:36:58 50° 282° (WNW) 12:41:11
ZACube-1 03 Aug 12:33:46 12:34:55 11° 299° (WNW) 12:35:50 437.345
Cosmos 2491 03 Aug 12:34:22 12:43:09 87° 96° (E) 12:51:57 435.465 / 435.565
BUGSAT 1 03 Aug 12:34:47 12:37:44 19° 267° (W) 12:40:34 437.445
ESTCUBE 1 03 Aug 12:42:28 12:46:54 57° 287° (WNW) 12:51:17 437.505/2401.250
Oscar 19 03 Aug 12:44:48 12:49:21 35° 68° (ENE) 12:54:01 437.125/150
HUMSAT D 03 Aug 12:59:42 13:01:21 12° 297° (WNW) 13:02:47 437.325/437.525
UKube-1 03 Aug 13:02:43 13:05:39 17° 295° (WNW) 13:08:26 .
AO-7 03 Aug 13:17:08 13:19:46 12° 42° (NE) 13:22:51 29.400- 29.500
AISAT 03 Aug 13:20:20 13:23:18 17° 295° (WNW) 13:26:09 437.250
CUBEBUG 1 03 Aug 13:26:10 13:29:40 24° 292° (WNW) 13:33:07 437.445
Cosmos 2504 03 Aug 13:37:03 13:45:25 63° 78° (ENE) 13:53:58 435.465 / 435.565
SPROUT 03 Aug 13:51:57 13:55:57 38° 289° (WNW) 13:59:56 437.525
TISAT 1 03 Aug 13:53:32 13:57:42 59° 286° (WNW) 14:01:51 437.305
YUBILEINY 03 Aug 13:59:05 14:03:55 15° 283° (WNW) 14:08:11 435.215
Gurwin Techsat 1B 03 Aug 14:03:22 14:08:32 57° 72° (ENE) 14:13:46 435.225
BEESAT 03 Aug 14:03:57 14:08:03 28° 95° (E) 14:12:12 436.000
ITAMSAT 1 03 Aug 14:10:45 14:15:52 59° 72° (ENE) 14:21:01 435.822/435.867
JAS-2 03 Aug 14:21:53 14:27:32 36° 64° (ENE) 14:33:56 435.910
Oscar 19 03 Aug 14:24:17 14:28:46 29° 265° (W) 14:33:12 437.125/150
HORYU 2 03 Aug 14:24:32 14:24:50 10° 60° (ENE) 14:25:23 437.375
SWISSCUBE 03 Aug 14:24:33 14:29:12 50° 100° (E) 14:33:49 437.505
Cosmos 2491 03 Aug 14:34:57 14:41:24 21° 300° (WNW) 14:47:29 435.465 / 435.565
ITUPSAT 1 03 Aug 14:46:44 14:51:31 75° 102° (ESE) 14:56:17 437.325
AO-7 03 Aug 15:02:51 15:10:44 49° 63° (ENE) 15:18:42 29.400- 29.500
DANDE 03 Aug 15:10:48 15:14:40 56° 79° (E) 15:19:51 436.750
CUSAT 1 03 Aug 15:12:13 15:16:35 88° 261° (W) 15:22:27 437.405
STARS 03 Aug 15:18:45 15:21:34 17° 91° (E) 15:24:32 437.465
Cosmos 2504 03 Aug 15:30:04 15:37:10 30° 276° (W) 15:44:09 435.465 / 435.565
BEESAT 03 Aug 15:41:39 15:45:54 32° 292° (WNW) 15:50:04 436.000
Gurwin Techsat 1B 03 Aug 15:45:09 15:48:57 19° 270° (W) 15:52:35 435.225
KKS-1 03 Aug 15:50:59 15:55:26 62° 101° (E) 15:59:52 437.445
ITAMSAT 1 03 Aug 15:52:17 15:55:51 18° 270° (W) 15:59:12 435.822/435.867
HORYU 2 03 Aug 15:56:21 16:00:48 88° 81° (E) 16:05:19 437.375
SWISSCUBE 03 Aug 16:03:17 16:06:43 19° 296° (WNW) 16:10:01 437.505
JAS-2 03 Aug 16:06:39 16:12:31 42° 266° (W) 16:19:05 435.910
ITUPSAT 1 03 Aug 16:26:24 16:28:52 14° 299° (WNW) 16:31:07 437.325
Cosmos 2499 03 Aug 16:36:22 16:39:22 12° 52° (NE) 16:43:03 435.465 / 435.565
PCSat 03 Aug 16:40:03 16:44:19 23° 44° (NE) 16:48:40 145.827
GONETS M04 03 Aug 16:41:16 16:49:41 50° 74° (ENE) 16:58:09
SO-50 03 Aug 16:43:39 16:47:58 29° 44° (NE) 16:52:16 436.795
Cubesat XI-IV 03 Aug 16:44:55 16:47:24 14° 59° (ENE) 16:50:07 437.490
VERMONT LUNAR 03 Aug 16:47:46 16:49:28 14° 152° (SSE) 16:51:14 437.305
STARS 03 Aug 16:54:02 16:58:18 46° 288° (WNW) 17:02:32 437.465
DANDE 03 Aug 16:55:43 16:57:47 13° 266° (W) 16:59:49 436.750
AO-7 03 Aug 16:55:55 17:03:42 40° 262° (W) 17:11:25 29.400- 29.500
MOZHAYETS 4 03 Aug 17:00:39 17:05:04 43° 97° (E) 17:09:28
KKS-1 03 Aug 17:29:06 17:31:37 15° 297° (WNW) 17:33:57 437.445
CUTE-I 03 Aug 17:37:10 17:42:02 37° 68° (ENE) 17:46:58 437.470
Cubesat XI-IV 03 Aug 18:21:26 18:26:49 90° 252° (WSW) 18:32:14 437.490
VERMONT LUNAR 03 Aug 18:22:42 18:25:44 41° 166° (SSE) 18:28:45 437.305
PCSat 03 Aug 18:22:50 18:28:13 63° 244° (WSW) 18:33:33 145.827
BRITE-PL 03 Aug 18:23:45 18:24:07 10° 63° (ENE) 18:24:43 437.365/2234.400
SO-50 03 Aug 18:23:59 18:28:42 44° 243° (WSW) 18:33:16 436.795
Cosmos 2499 03 Aug 18:26:16 18:34:54 58° 76° (ENE) 18:43:38 435.465 / 435.565
GONETS M04 03 Aug 18:38:33 18:46:20 37° 274° (W) 18:53:58
MOZHAYETS 4 03 Aug 18:38:33 18:42:02 21° 294° (WNW) 18:45:22
PRISM 03 Aug 18:58:30 19:00:09 12° 89° (E) 19:02:02 437.425
STRAND 1 03 Aug 19:00:40 19:04:23 21° 91° (E) 19:08:13 437.568
CUBESAT XI-V 03 Aug 19:02:08 19:06:45 70° 102° (ESE) 19:11:18 437.345
CUTE-I 03 Aug 19:17:30 19:22:12 30° 265° (W) 19:26:50 437.470
PHONESAT 2.4 03 Aug 19:21:21 19:24:19 26° 158° (SSE) 19:27:18 2401.200-2431.200
DOVE 4 03 Aug 19:30:48 19:33:39 19° 66° (ENE) 19:36:37 437.250
HO-68 03 Aug 19:32:09 19:38:27 36° 63° (ENE) 19:44:53 435.675
RS-15 03 Aug 19:50:51 19:58:49 26° 103° (ESE) 20:07:27 29.354- 29.394
GOMX 1 03 Aug 19:54:33 19:58:39 55° 74° (ENE) 20:02:44 467.674
BRITE-PL 03 Aug 19:57:52 20:02:12 76° 258° (WSW) 20:06:23 437.365/2234.400
VERMONT LUNAR 03 Aug 19:59:07 20:02:15 57° 184° (S) 20:05:23 437.305
COMPASS 1 03 Aug 20:02:28 20:05:38 21° 67° (ENE) 20:08:55 437.405
Cubesat XI-IV 03 Aug 20:05:58 20:07:48 11° 274° (W) 20:09:16 437.490
Cosmos 2499 03 Aug 20:20:04 20:27:43 34° 275° (W) 20:35:13 435.465 / 435.565
SEEDS 03 Aug 20:21:15 20:25:15 42° 72° (ENE) 20:29:19 437.485
ISS 03 Aug 20:24:17 20:27:28 54° 142° (SE) 20:30:40 145.825
CUTE 1.7 + AOD 2 03 Aug 20:28:29 20:32:42 63° 75° (ENE) 20:36:58 437.475
PRISM 03 Aug 20:31:59 20:36:01 54° 287° (WNW) 20:40:00 437.425
CANX-2 03 Aug 20:37:15 20:41:33 88° 71° (ENE) 20:45:53 2200.000
FUNcube-1 03 Aug 20:38:12 20:39:58 13° 63° (ENE) 20:41:57 145.935
STRAND 1 03 Aug 20:38:59 20:43:54 49° 289° (WNW) 20:48:47 437.568
AAUSAT CUBESAT 2 03 Aug 20:40:25 20:44:26 45° 73° (ENE) 20:48:29 437.432
CUBESAT XI-V 03 Aug 20:41:19 20:43:40 14° 297° (WNW) 20:45:48 437.345
Oscar 11 03 Aug 20:44:12 20:47:39 24° 68° (ENE) 20:51:12 145.826/435.025
UWE-3 03 Aug 20:46:39 20:49:43 20° 66° (ENE) 20:52:58 435.000/436.395/437.385
CINEMA 3 03 Aug 20:55:18 20:59:25 67° 75° (ENE) 21:03:40 145.822/145.860
PHONESAT 2.4 03 Aug 20:58:30 21:01:58 57° 174° (S) 21:05:25 2401.200-2431.200
CUBEBUG 2 03 Aug 21:07:13 21:11:09 41° 72° (ENE) 21:15:15 437.445
DOVE 4 03 Aug 21:07:20 21:11:12 37° 263° (W) 21:15:05 437.250
HO-68 03 Aug 21:19:13 21:26:03 47° 261° (W) 21:32:54 435.675
DX 1 03 Aug 21:20:43 21:22:09 12° 62° (ENE) 21:23:47 434.975-435.025
GOMX 1 03 Aug 21:35:31 21:37:16 12° 272° (W) 21:38:48 467.674
VERMONT LUNAR 03 Aug 21:35:54 21:38:43 28° 199° (SSW) 21:41:30 437.305
COMPASS 1 03 Aug 21:37:14 21:41:07 34° 264° (W) 21:45:00 437.405
DELFI C3 03 Aug 21:41:24 21:45:26 66° 75° (ENE) 21:49:30 145.870
AUBIESAT-1 03 Aug 21:43:54 21:46:32 15° 93° (E) 21:49:18 437.475
VELOX 1 03 Aug 21:45:33 21:47:24 13° 62° (ENE) 21:49:27 145.980
ZACube-1 03 Aug 21:51:11 21:55:24 77° 76° (ENE) 21:59:44 437.345
SEEDS 03 Aug 21:58:22 22:01:17 17° 269° (W) 22:04:04 437.485
RS-15 03 Aug 21:59:00 22:09:58 85° 305° (NW) 22:21:23 29.354- 29.394
ISS 03 Aug 22:01:12 22:04:04 27° 340° (NNW) 22:06:56 145.825
CUTE 1.7 + AOD 2 03 Aug 22:07:27 22:09:07 12° 273° (W) 22:10:33 437.475
ESTCUBE 1 03 Aug 22:07:54 22:10:34 16° 64° (ENE) 22:13:22 437.505/2401.250
FUNcube-1 03 Aug 22:11:36 22:15:46 65° 259° (W) 22:20:05 145.935
HUMSAT D 03 Aug 22:14:03 22:18:06 55° 74° (ENE) 22:22:15 437.325/437.525
BEESAT 3 03 Aug 22:14:51 22:17:46 20° 113° (ESE) 22:20:49 437.485
AAUSAT CUBESAT 2 03 Aug 22:17:40 22:20:19 16° 270° (W) 22:22:48 437.432
Oscar 11 03 Aug 22:19:48 22:23:43 32° 264° (W) 22:27:37 145.826/435.025
TIGRISAT 03 Aug 22:20:42 22:23:15 15° 89° (E) 22:26:02 435.000
UKube-1 03 Aug 22:21:04 22:25:09 43° 71° (ENE) 22:29:16 .
UWE-3 03 Aug 22:22:07 22:26:01 37° 263° (W) 22:30:03 435.000/436.395/437.385
ANTELSAT 03 Aug 22:23:30 22:26:26 17° 90° (E) 22:29:32 437.575/2403.000
PHONESAT 2.4 03 Aug 22:36:20 22:39:46 50° 191° (S) 22:43:10 2401.200-2431.200
CINEMA 3 03 Aug 22:36:39 22:37:15 10° 274° (W) 22:37:35 145.822/145.860
AIST 1 03 Aug 22:39:02 22:43:03 39° 76° (ENE) 22:47:04
AISAT 03 Aug 22:41:08 22:45:21 47° 72° (ENE) 22:49:36 437.250
Cosmos 2491 03 Aug 22:44:01 22:52:15 45° 72° (ENE) 23:00:34 435.465 / 435.565
CUBEBUG 2 03 Aug 22:45:14 22:48:07 17° 270° (W) 22:50:55 437.445
CUBEBUG 1 03 Aug 22:46:30 22:50:16 30° 69° (ENE) 22:54:06 437.445
M-CUBED/EXP-1 PRIME 03 Aug 22:50:24 22:55:14 83° 108° (ESE) 22:59:54 437.505
50 SAT 03 Aug 22:50:24 22:54:16 67° 75° (ENE) 22:58:12 437.505
POPSAT HIP 1 03 Aug 22:53:18 22:54:24 11° 88° (E) 22:55:45 437.405
DX 1 03 Aug 22:53:31 22:57:51 75° 257° (WSW) 23:02:12 434.975-435.025
QB50P2 03 Aug 23:00:45 23:03:00 14° 90° (E) 23:05:26 145.880/145.840
YUBILEINY 03 Aug 23:06:55 23:13:27 26° 82° (E) 23:20:19 435.215
SPROUT 03 Aug 23:12:02 23:14:49 18° 66° (ENE) 23:17:44 437.525
UNISAT 6 03 Aug 23:13:43 23:18:20 53° 100° (E) 23:22:57 437.425
TISAT 1 03 Aug 23:13:48 23:14:56 11° 62° (ENE) 23:16:18 437.305
BEESAT 2 03 Aug 23:15:47 23:19:50 67° 122° (ESE) 23:23:57 435.950
AUBIESAT-1 03 Aug 23:16:59 23:21:42 62° 291° (WNW) 23:26:13 437.475
VELOX 1 03 Aug 23:19:04 23:23:27 70° 258° (WSW) 23:27:51 145.980
DELFI C3 03 Aug 23:20:24 23:21:01 10° 273° (W) 23:21:22 145.870
DUCHIFAT 1 03 Aug 23:21:03 23:24:20 22° 93° (E) 23:27:43 145.980
QB50P1 03 Aug 23:26:27 23:30:01 26° 94° (E) 23:33:41 145.935-145.965
NANOSAT C BR1 03 Aug 23:26:27 23:29:59 26° 94° (E) 23:33:36 145.865
AIST 2 03 Aug 23:31:38 23:34:55 23° 114° (ESE) 23:38:19 435.215
ISS 03 Aug 23:39:02 23:41:15 17° 0° (N) 23:43:29 145.825
ESTCUBE 1 03 Aug 23:42:33 23:47:01 57° 260° (W) 23:51:30 437.505/2401.250
BEESAT 3 03 Aug 23:51:35 23:55:28 41° 309° (NW) 23:59:22 437.485
HUMSAT D 03 Aug 23:52:18 23:54:17 13° 272° (W) 23:56:04 437.325/437.525
TIGRISAT 03 Aug 23:55:48 00:00:26 60° 287° (WNW) 00:05:05 435.000
UKube-1 03 Aug 23:58:35 00:01:31 17° 268° (W) 00:04:20 .
ANTELSAT 03 Aug 23:58:57 00:03:34 54° 287° (WNW) 00:08:09 437.575/2403.000
